DELTA 1 DEB, 10714

Orbit data source: Space-Track

DELTA 1 DEB, 10714 is space debris in LEO originally from a launch on Thu, 29 Jul 1976 UTC launched from the Air Force Western Test Range (AFWTR). Debris objects in space refer to the collection of defunct objects orbiting the Earth. Examples of debris include non-operational satellites, rocket bodies, and fragments generated from explosions, collisions, or faulty payload assembly.

Loading next visibility...
Identifier
10714, 1976-077AK
Orbit
LEO
Last TLE update
15 hours ago
Origin
Manufacturer
Unknown
Mission
Spacecraft
Bus & Motor
Unknown
Mass
Unknown
Launch date (UTC)
1976-07-29 (49 years ago)
Launch vehicle
Unknown
Launch site
Air Force Western Test Range (AFWTR)
Object type
Payload
Rocket body
Debris
Shape & HBR
Unknown
Radar Cross Section
Medium (>0.1 m² and <1 m²)

Expand to show TLE details & history

TLE from 15 hours ago
0 DELTA 1 DEB
1 10714U 76077AK  25128.72222044 -.00002502  00000-0 -35277-1 0  9997
2 10714 103.3565  48.8555 0579757 215.2513 208.3713 11.53788452 46358
Epoch: 2025-05-08T17:19Z
Definitive object data (Epoch: 2025-05-08T17:19:59.846Z)
Latitude
58.09258°
Longitude
-100.24471°
Altitude
2,332.025 km
Speed
6.593 km/s
True Right ascension
01h 46m 10s
True Declination
57° 57' 58"
Sunlit
Object was in daylight at TLE epoch
Visualization TLE readout
Latitude
-37.35221°
Longitude
92.27947°
Altitude
1,429.8 km
Speed
7.35 km/s
Apparent Right ascension
11h 08m 29s
Apparent Declination
-67° 50' 51"
Sunlit
Object is in full shadow
Visualization observer readout
Local Sidereal Time
16:56:40
Azimuth
207.518° SW
Elevation
-35.408°
Doppler factor
1
Orbital elements
Apogee altitude
2,371.883 km
Perigee altitude
1,412.904 km
Semi-major axis
8,270.53 km
Eccentricity
0.0579757
Inclination
103.3565°
RAAN
48.8555°
Arg. of periapsis
215.2513°
True anomaly
205.40537°
Mean anomaly
208.3713°
Eccentric anomaly
206.86997°
Mean motion
2.88565 °/min
BSTAR
-0.035277
Orbital period
124.76 mins
Loading maneuver chart data...
Loading SW <> Apogee altitude chart data...
Loading historical data...
Loading historical data...
Loading historical data...
Loading historical data...
Loading historical data...
Loading historical data...
Loading historical data...

DELTA 1 DEB Visibility forecast

Observer location: undefined°, undefined°

Span
Click to sort rows by Start time (UTC) header in descending order
Start Az.
Max El. time (UTC)
Max El. Az.
Max El.
End time (UTC)
End Az.
11 mins2025-05-09 10:15:27.218Z355.544° N2025-05-09 10:21:27.218Z319.051° NNW17.956°2025-05-09 10:26:27.218Z285.803° WNW
17 mins2025-05-09 16:02:27.218Z93.357° ESE2025-05-09 16:11:27.218Z43.694° NE24.844°2025-05-09 16:19:27.218Z358.944° N
24 mins2025-05-09 17:59:27.218Z151.604° SSE2025-05-09 18:11:27.218Z43.098° NE44.68°2025-05-09 18:23:27.218Z342.406° N
19 mins2025-05-09 20:04:27.218Z212.892° SW2025-05-09 20:13:27.218Z263.395° W26.365°2025-05-09 20:23:27.218Z319.763° NNW
17 mins2025-05-10 07:07:27.218Z27.505° NE2025-05-10 07:16:27.218Z108.647° ESE40.622°2025-05-10 07:24:27.218Z181.619° SSW
|